DMSP 5D-2 F11 DEB, 28322

Orbit data source: Space-Track

DMSP 5D-2 F11 DEB, 28322 is space debris in SSO originally from a launch on Thu, 28 Nov 1991 UTC launched from the Air Force Western Test Range (AFWTR). Debris objects in space refer to the collection of defunct objects orbiting the Earth. Examples of debris include non-operational satellites, rocket bodies, and fragments generated from explosions, collisions, or faulty payload assembly.

Loading next visibility...
Identifier
28322, 1991-082AK
Orbit
SSO
Country
Flag of USUS
Related business
Manufacturer
Unknown
Mission
Spacecraft
Bus & Motor
Unknown
Mass
Unknown
Launch date (UTC)
1991-11-28 (34 years ago)
Launch vehicle
Unknown
Launch site
Air Force Western Test Range (AFWTR)
Object type
Payload
Rocket body
Debris
Shape & HBR
Unknown shape, 0.1 m
Radar Cross Section
Small (<0.1 m²)

Expand to show TLE details & history
Last TLE update: 1 day ago

TLE from 1 day ago
0 DMSP 5D-2 F11 DEB
1 28322U 91082AK  25349.51047971  .00000535  00000-0  37858-3 0  9991
2 28322  98.5620 355.0941 0112197  19.6097 131.3028 13.98754888101538
Epoch: 2025-12-15T12:15Z
TLE epoch observation values (Epoch: 2025-12-15T12:15:05.446Z)
Latitude
27.83115°
Longitude
-88.55142°
Altitude
955.911 km
Speed
7.349 km/s
True Right ascension
11h 58m 31s
True Declination
27° 41' 36"
Sunlit
Object was in daylight at epoch
Visualization orbit readout
Latitude
Unknown
Longitude
Unknown
Altitude
Unknown
Speed
Unknown
Apparent Right ascension
Unknown
Apparent Declination
Unknown
Sunlit
N/A
Visualization observer readout
Local Sidereal Time
11:57:47
Azimuth
Unknown
Elevation
Unknown
Doppler factor
Unknown
Orbital elements
Apogee altitude
976.895 km
Perigee altitude
813.684 km
Semi-major axis
7,273.427 km
Eccentricity
0.01122
Inclination
98.562°
RAAN
355.0941°
Arg. of periapsis
19.6097°
True anomaly
132.25974°
Mean anomaly
131.3028°
Eccentric anomaly
131.78216°
Mean motion
3.49892 °/min
Orbital period
102.89 mins
BSTAR
0.00037858
Loading maneuver chart data...
Computing Atmospheric mass density...

Documentation

Showing up to 5 results
|